Location: Spruce Knob
(38.6995°N, 79.5330°W)
Time: 21:12:15
(UTC-04:00)

Transit 2A - Pass Details

Date: 13 August 2022
Orbit: 601 x 956 km, 66.7° (Epoch: 27 September)

Event Time Altitude Azimuth Distance (km) Brightness Sun altitude
Rises 20:38:47 0° 340° (NNW) 2,856 9.7 -5.2°
Reaches altitude 10° 20:41:10 10° 350° (N) 1,962 8.6 -5.6°
Maximum altitude 20:45:10 34° 56° (NE) 1,038 6.5 -6.3°
Drops below altitude 10° 20:49:21 10° 121° (ESE) 2,055 7.6 -7.0°
Enters shadow 20:49:43 - 123° (ESE) 2,191 7.7 -7.1°
